Terminal Aerodrome Forecast
Issued by NWS Missoula, MT

Home | Current Version | Previous Version | Text Only | Print | Product List | Glossary On
Versions: 1 2 3 4 5 6 7 8 9 10 11 12
000
FTUS45 KMSO 230500
TAFGPI
TAF
KGPI 230520Z 2306/2406 19012KT P6SM VCSH BKN040
     FM231600 23015G25KT P6SM BKN060
     FM240200 22008KT P6SM BKN100=

USA.gov is the U.S. government's official web portal to all federal, state and local government web resources and services.